Flag for Germany Weather past 2 weeks in Bayreuth, Bavaria, Germany

Now
64 °F

Sunny.


Feels Like: 64 °F
Forecast: 51 / 78 °F
Wind: No wind

Location: Grafenwoehr

Current Time: Jul 24, 2014 at 10:46:58 PM

Latest Report: Jul 24, 2014 at 9:58 PM


Visibility: N/A

Pressure: 29.90 "Hg

Humidity: 69%

Dew point: 54 °F

Location of BayreuthLocation

Historic Weather in Bayreuth — Graph

°F

Bayreuth temperature yesterday

Maximum temperature yesterday: 81 °F (at 5:58 PM)
Minimum temperature yesterday: 55 °F (at 5:58 AM)
Average temperature yesterday: 69 °F

Past Weeks' High & Low Weather Summary

 TemperatureHumidityPressure
High90 °F (Jul 20, 3:58 PM)100% (Jul 12, 4:58 AM)30.16 "Hg (Jul 12, 4:58 AM)
Low50 °F (Jul 24, 5:58 AM)29% (Jul 18, 6:58 PM)29.74 "Hg (Jul 21, 12:58 AM)
Average66 °F75%29.94 "Hg
* Reported Jul 9 9:58 PM — Jul 24 9:58 PM, Bayreuth, Weather by CustomWeather, © 2014

Note: Actual official high and low records may vary slightly from our data, if they occured in-between our weather recording intervals... More about our weather records

Advertising

Bayreuth weather history for previous 24 hours

 ConditionsComfort  
Time TempWeatherWind HumidityBarometerVisibility
9:58 PM
Jul 24
64 °FSunny.No wind69%29.90 "HgN/A
8:58 PM68 °FSunny.2 mph61%29.88 "HgN/A
7:58 PM72 °FSunny.2 mph54%29.88 "HgN/A
6:58 PM74 °FSunny.No wind51%29.87 "HgN/A
5:58 PM72 °FPartly sunny.3 mph57%29.89 "HgN/A
4:58 PM76 °FScattered clouds.2 mph50%29.88 "HgN/A
3:58 PM73 °FPartly sunny.5 mph50%29.88 "HgN/A
2:58 PM79 °FSunny.5 mph37%29.88 "HgN/A
1:58 PM75 °FPartly sunny.3 mph41%29.89 "HgN/A
12:58 PM75 °FPassing clouds.2 mph44%29.90 "HgN/A
11:58 AM75 °FSunny.5 mph47%29.89 "HgN/A
10:58 AM73 °FPassing clouds.6 mph50%29.90 "HgN/A
9:58 AM70 °FSunny.6 mph57%29.90 "HgN/A
8:58 AM66 °FSunny.2 mph65%29.91 "HgN/A
7:58 AM60 °FPartly sunny.1 mph78%29.91 "HgN/A
6:58 AM53 °FPassing clouds.No wind91%29.91 "HgN/A
5:58 AM50 °FPassing clouds.No wind94%29.92 "HgN/A
4:58 AM51 °FPassing clouds.No wind94%29.93 "HgN/A
3:58 AM52 °FClear.No wind92%29.92 "HgN/A
2:58 AM54 °FClear.2 mph94%29.92 "HgN/A
1:58 AM54 °FClear.No wind94%29.93 "HgN/A
12:58 AM57 °FClear.2 mph88%29.94 "HgN/A
11:58 PM
Jul 23
61 °FClear.No wind77%29.94 "HgN/A
10:58 PM62 °FClear.No wind72%29.95 "HgN/A
Weather by CustomWeather, © 2014

See weather overviewHow to use our weather pages